Tracking 29528 objects as of 13-Sep-2024
HD Live streaming from Space Station
objects crossing your sky now

FENGYUN 1C DEB

Track FENGYUN 1C DEB now!
10-day predictions


NORAD ID: 37476
Int'l Code: 1999-025EJW
Perigee: 859.9 km
Apogee: 2,615.1 km
Inclination: 98.9 °
Period: 121.1 minutes
Semi major axis: 8108 km
RCS: 0.002 m2 (small)
Launch date: May 10, 1999
Source: People's Republic of China (PRC)
Launch site: Taiyaun Space Center, China (TSC)

Note: This is SATELLITE DEBRIS
Your satellite tracking list
Your tracking list is empty




NASA's NSSDC Master Catalog

Two Line Element Set (TLE):
1 37476U 99025EJW 24256.39267243  .00002455  00000-0  65969-2 0  9990
2 37476  98.9490  57.3844 1082307  30.9132 335.1291 11.89028909620142
Source of the keplerian elements: AFSPC